Simultaneous Nadir Overpasses (SNOs) Predictions

Prediction of SNOs between GOES-16 and NOAA-19 Satellite Orbit:

Table of predicted SNOs for the next 14.0 days since TLE Epoch: 8/17/2018
Index Date Time (GOES-16) GOES-16 Lat,Lon NOAA-19 Lat,Lon Distance(km) Time Diff (sec)
1 08/18/2018 09:03:30 -0.03, -75.20 -0.48, -73.32 215.30 80
2 08/20/2018 21:27:34 0.03, -75.22 -0.73, -78.39 362.16 80
3 08/21/2018 21:16:01 0.03, -75.24 -0.05, -75.57 38.69 80
4 08/22/2018 21:01:47 0.04, -75.25 0.63, -72.76 284.92 80
5 08/25/2018 09:25:36 -0.04, -75.30 0.55, -77.77 282.23 80
6 08/26/2018 09:11:23 -0.05, -75.32 -0.15, -74.96 42.09 80
7 08/27/2018 08:59:48 -0.05, -75.34 -0.79, -72.13 366.50 80
8 08/29/2018 21:23:54 0.05, -75.39 -0.39, -77.22 208.24 80
9 08/30/2018 21:09:41 0.05, -75.42 0.31, -74.40 116.59 80




NCC Satellite Simultaneous Nadir Overpasses (SNOs) Prediction Service
